Regional Weather Roundup
Issued by NWS

Home | Current Version | Previous Version | Text Only | Print | Product List | Glossary Off
Versions: 1 2 3 4 5 6 7 8 9 10 11 12 13 14 15 16 17 18 19 20 21 22 23 24 25 26 27 28 29 30 31 32 33 34 35 36 37 38 39 40 41 42 43 44 45 46 47 48 49 50

000
ASUS45 KBOU 270707
RWRCO

WEATHER ROUNDUP FOR COLORADO
NATIONAL WEATHER SERVICE DENVER/BOULDER CO
100 AM MDT FRI MAY 27 2016

NOTE: "FAIR" INDICATES FEW OR NO CLOUDS BELOW 12000 FEET WITH NO
SIGNIFICANT WEATHER AND/OR OBSTRUCTIONS TO VISIBILITY.

COZ001>005-013-030-031-270800-
...NORTHWEST COLORADO...

CITY           SKY/WX    TMP DP  RH WIND       PRES   REMARKS
CRAIG          MOCLDY    45  37  73 S5        29.97R
HAYDEN         MOCLDY    43  34  70 SW6       29.98R
MEEKER         CLOUDY    49  38  65 CALM      29.98
MOUNT WERNER   NOT AVBL
STEAMBOAT SPGS MOCLDY    42  36  79 SE3       29.98S
WALDEN         FAIR      36  32  87 NW6       30.02S
$$

COZ006>008-011-270800-
...WEST CENTRAL VALLEYS...

CITY           SKY/WX    TMP DP  RH WIND       PRES   REMARKS
GRAND JUNCTION FAIR      49  41  74 W5        29.92R
MONTROSE       FAIR      47  37  68 SE16      29.98S
EAGLE          CLOUDY    43  41  93 SW3       30.01S
RIFLE          CLOUDY    51  36  56 CALM      29.95R
DELTA          MOCLDY    53  39  59 SE6       29.96S
NUCLA          FAIR      48  36  61 E6        30.01S
$$

COZ017>023-064>068-270800-
...SOUTHWEST COLORADO...

CITY           SKY/WX    TMP DP  RH WIND       PRES   REMARKS
DURANGO        CLOUDY    47  29  49 W7        29.95S
CORTEZ         FAIR      41  34  76 SE3       29.97F
PAGOSA SPRINGS CLOUDY    45  28  51 CALM      29.99S
TELLURIDE      LGT SNOW  34  34 100 CALM      30.08F
WOLF CREEK PAS CLOUDY    25  25 100 SW8       30.11F WCI  16
$$

COZ009-010-012-014-032>034-037-058>063-270800-
...CENTRAL COLORADO...

CITY           SKY/WX    TMP DP  RH WIND       PRES   REMARKS
ASPEN          CLOUDY    40  36  86 CALM      30.01R
BUENA VISTA    MOCLDY    38  37  94 SE3       29.98S
COPPER MTN     NOT AVBL
BERTHOUD PASS  HAZE      25  14  63 N13G25    30.10S VSB<1/4 WCI  13
COTTONWOOD PAS CLOUDY    36  34  93 CALM      30.02F
GUNNISON       FAIR      43  34  70 SW5       30.02S
KREMMLING      CLOUDY    43  32  65 W9        29.99S
LEADVILLE      CLOUDY    33  30  88 N8        30.02F WCI  26
MONARCH PASS   FOG       28  27  93 W8        30.19S VSB<1/4 WCI  20
SALIDA         CLOUDY    42  40  91 CALM      30.05S
SUNLIGHT       CLOUDY    34  32  93 NW3       30.13R
WILKERSON PASS CLOUDY    30  28  93 N12G22    30.07S WCI  21
$$

COZ069>075-270800-
...SAN LUIS VALLEY/SANGRE DE CRISTO MOUNTAINS...

CITY           SKY/WX    TMP DP  RH WIND       PRES   REMARKS
ALAMOSA        CLOUDY    38  34  85 NW15G23   29.98S
LA VETA PASS   CLOUDY    32  30  93 SW6       30.02F WCI  26
SAGUACHE       DRIZZLE   37  36  93 NW9       29.99F
$$

COZ035-036-038>040-270800-
...NORTHERN COLORADO FRONT RANGE...

CITY           SKY/WX    TMP DP  RH WIND       PRES   REMARKS
DENVER INTL AP CLOUDY    46  43  89 S3        29.88F
DMNS CITY PARK   N/A     48  46  91 SW3       29.87F
AURORA         CLOUDY    46  46 100 S2        29.89F
FRONT RANGE AP NOT AVBL
ERIE MUNI ARPT MOCLDY    47  45  93 CALM      29.87F
BOULDER MUN AP FAIR      48  45  87 CALM      29.88F
CENTENNIAL     CLOUDY    46  43  89 CALM      29.89F
BROOMFIELD     CLOUDY    46  43  87 W3        29.89F
FORT COLLINS   FAIR      46  43  87 SE6       29.89S
LONGMONT       FAIR      49  46  88 CALM      29.89F
$$

COZ041-046-047-076>085-087-088-270800-
...PIKES PEAK/PALMER DIVIDE AND SOUTHERN FOOTHILLS...

CITY           SKY/WX    TMP DP  RH WIND       PRES   REMARKS
COLO. SPRINGS  LGT RAIN  47  39  74 NW7       29.91S
A. F. ACADEMY  LGT RAIN  45  41  87 N8        29.90S
SCHRIEVER AFB  NOT AVBL
ELLICOTT       LGT RAIN N/A N/A N/A N10       29.89S
FALCON         LGT RAIN  41  40  95 NW5       29.93S
FORT CARSON    LGT RAIN  47  42  83 W3        29.88F
LIMON          LGT RAIN  45  43  93 NW12      29.87R
MONUMENT HILL  LGT RAIN  37  37 100 NW5       29.93F
TRINIDAD       FAIR      40  34  79 S6        29.90F
$$

COZ042>045-048>051-090-091-270800-
...NORTHEAST COLORADO...

CITY           SKY/WX    TMP DP  RH WIND       PRES   REMARKS
GREELEY ARPT   CLOUDY    48  46  93 SW3       29.88F
AKRON          RAIN      49  46  90 NW14      29.82F
BURLINGTON     FAIR      46  42  86 NW9       29.79F
WRAY           NOT AVBL
STERLING       DRIZZLE   52  48  87 NW9       29.80S
HOLYOKE        NOT AVBL
FORT MORGAN    DRIZZLE   48  46  91 W10       29.85S
$$

COZ086-089-092>099-270800-
...SOUTHEAST COLORADO...

CITY           SKY/WX    TMP DP  RH WIND       PRES   REMARKS
PUEBLO         CLOUDY    53  42  66 S3        29.87S
LA JUNTA       FAIR      50  41  71 N13       29.84F
LAMAR          FAIR      46  40  79 W10       29.81R
SPRINGFIELD      N/A     45  38  76 NW17      29.83S
$$



USA.gov is the U.S. government's official web portal to all federal, state and local government web resources and services.